Wind_Speed
69 70 70 71 72 74 75 77 79 82 84 85 87 88 90 91 92 93 93 94 94 95 96 97 97 97 97 96 96 97 98 100 103 100 94 90 89 87 86 86 86 85 83
71 72 72 74 75 77 79 81 83 85 87 88 89 90 91 92 93 93 93 94 95 95 96 97 98 99 99 99 100 100 101 102 104 106 102 97 93 92 91 89 89 89 88
73 74 75 77 78 80 82 84 85 87 88 89 90 91 92 92 93 93 94 94 94 95 96 97 98 99 100 101 102 102 103 103 105 107 107 105 100 96 94 93 92 91 91
75 76 77 79 81 82 84 85 86 87 88 89 89 89 88 87 87 86 87 87 88 89 90 92 94 96 98 100 102 103 104 105 105 107 108 108 107 103 100 98 96 93 93
77 78 79 80 82 83 84 85 86 86 84 82 80 77 75 75 75 75 76 78 79 80 81 83 85 88 90 93 96 99 101 104 105 107 108 109 109 108 106 104 102 99 96
78 79 80 81 83 83 83 83 80 77 73 70 67 66 66 67 69 72 74 75 76 76 76 76 77 78 80 83 86 89 93 96 99 102 105 107 108 109 110 110 108 107 103
78 80 81 82 81 80 77 74 70 67 64 63 63 64 65 67 70 72 75 75 74 73 72 71 70 71 72 74 75 77 79 82 87 91 95 98 101 104 108 110 111 111 108
79 80 80 78 75 72 69 66 64 62 62 63 64 66 67 69 72 73 74 74 72 70 69 68 67 66 67 68 67 67 69 71 75 78 82 85 89 92 96 102 107 110 112
78 77 74 71 67 65 63 62 62 62 63 64 65 67 69 70 71 72 73 71 69 66 64 62 60 59 58 58 58 57 57 59 62 65 69 72 76 80 84 90 95 101 106
73 69 66 64 62 62 61 62 62 63 64 65 66 67 69 70 70 71 70 67 64 60 56 52 51 50 50 50 50 50 50 53 55 58 60 63 66 69 74 79 84 90 95
65 62 61 61 60 60 61 62 62 63 64 65 66 67 68 68 68 66 64 61 57 52 48 45 44 44 46 47 49 50 52 54 56 59 61 64 66 68 71 74 78 82 87
59 59 59 59 59 59 60 61 63 64 65 66 66 66 66 65 63 60 57 53 50 46 43 41 41 43 45 47 50 52 54 57 59 61 63 65 67 70 72 75 78 80 83
58 58 58 59 59 60 61 62 64 65 65 65 65 64 62 60 58 55 49 46 45 44 43 42 44 45 46 48 51 53 55 57 60 61 63 64 66 68 70 73 76 80 82
57 58 59 60 60 61 62 63 63 63 64 64 63 61 59 56 54 49 45 43 43 43 43 44 45 47 48 49 51 54 56 58 60 60 60 60 60 61 62 64 67 72 76
58 59 60 60 61 61 61 62 62 62 62 61 60 59 57 53 49 44 42 40 41 41 42 43 45 46 48 50 52 54 56 57 56 56 54 53 52 52 52 53 55 59 64
58 59 60 60 60 60 60 59 59 58 58 58 59 58 55 51 44 40 39 39 40 41 43 45 47 48 50 52 52 52 52 52 51 49 48 46 45 44 44 44 45 47 50
58 59 60 60 60 59 58 56 54 54 55 57 57 56 53 47 41 37 37 39 41 42 44 46 48 50 52 52 51 48 46 45 44 44 42 41 40 38 37 36 37 38 40
59 60 60 60 60 58 56 55 53 52 52 54 54 53 48 43 38 36 36 38 41 43 45 47 49 50 50 49 46 42 40 39 39 40 39 38 36 34 32 31 31 31 33
61 61 61 61 59 57 55 53 52 52 51 50 50 48 43 38 35 34 35 37 39 41 43 45 47 47 46 43 40 37 35 35 36 37 36 35 33 32 30 28 27 27 28
63 63 62 61 58 56 54 52 51 51 50 48 45 41 37 34 33 33 34 35 37 39 40 42 42 42 41 39 37 34 33 34 35 35 34 33 32 30 29 27 25 24 25
65 64 63 60 58 56 54 52 50 48 46 43 40 35 31 30 30 31 31 33 34 35 36 37 38 38 38 36 34 33 32 33 33 33 32 30 29 27 27 27 25 24 23
66 65 63 59 57 54 52 49 47 45 42 39 35 32 29 27 27 28 29 30 31 32 33 34 35 35 35 34 32 30 30 31 31 30 30 28 26 24 24 24 24 24 24
67 65 62 59 56 53 50 47 44 41 38 35 31 29 27 26 26 26 27 28 29 30 31 32 32 33 33 33 31 29 28 28 28 28 28 27 25 23 21 20 21 22 23
67 64 61 58 54 50 47 44 40 37 34 31 28 25 24 24 24 24 25 26 28 29 29 30 30 31 31 31 30 30 29 28 27 27 27 26 24 21 19 18 18 18 19
65 62 58 54 50 46 43 39 36 33 30 27 25 23 22 21 22 23 24 25 27 28 29 29 29 29 29 29 29 29 28 28 27 26 25 24 22 19 17 16 16 16 16
60 56 51 48 44 40 37 34 31 28 26 24 22 21 20 20 21 22 24 25 27 29 29 30 29 29 29 28 28 27 26 26 26 25 24 23 21 19 17 15 14 13 13
Wind_Direction
284 284 284 284 285 285 286 286 286 286 286 286 285 285 284 283 281 280 279 278 277 276 275 274 274 273 272 271 269 268 267 266 263 260 260 260 259 258 257 257 257 256 256
285 286 286 287 287 288 288 288 288 288 287 286 286 285 284 283 282 280 279 278 277 276 274 274 273 272 272 271 270 268 267 266 264 262 261 261 260 259 258 257 257 257 256
287 287 288 289 289 289 289 289 289 288 287 286 286 285 284 283 282 281 280 279 277 276 275 273 272 271 271 270 269 268 267 266 265 263 261 261 260 260 259 258 257 257 256
289 289 290 290 290 290 290 289 289 288 288 288 287 287 286 285 284 283 282 281 279 278 277 276 274 273 271 270 269 268 267 266 265 264 262 261 260 260 259 259 258 257 256
290 290 291 291 291 291 291 291 291 290 290 289 289 288 287 286 285 285 284 283 282 281 280 279 277 275 274 272 270 269 268 267 266 265 263 262 261 260 260 259 258 256 255
291 291 292 292 293 293 293 292 292 291 291 290 289 288 287 287 287 288 288 288 287 286 284 282 280 278 276 274 272 270 269 268 266 265 264 262 261 260 259 258 257 256 255
293 293 294 294 293 293 293 292 292 291 290 289 289 288 289 289 290 291 292 292 291 290 288 286 283 281 278 276 273 272 271 269 268 267 265 264 262 260 260 259 257 256 254
294 294 294 294 293 293 293 292 292 291 291 291 291 291 292 292 293 293 293 293 293 292 291 289 286 283 280 278 276 274 272 271 269 267 266 265 263 262 260 259 258 256 254
294 294 293 293 293 293 293 293 293 292 292 292 293 293 294 294 295 295 294 294 293 292 290 288 287 285 283 281 279 276 274 273 271 270 269 267 265 263 262 260 258 257 255
293 293 292 292 293 293 293 293 293 293 293 293 294 295 295 296 297 297 296 295 293 291 289 287 286 284 283 282 281 280 278 276 275 275 274 273 270 268 265 263 261 258 256
291 291 291 292 292 292 292 293 293 294 294 295 296 296 298 298 298 297 296 295 292 289 287 284 284 284 285 285 285 284 282 281 280 279 277 275 273 271 268 266 264 261 258
291 291 291 292 292 292 293 294 294 295 296 296 297 298 299 299 299 297 295 293 291 290 288 286 286 287 288 288 288 288 287 286 285 284 281 279 275 271 268 266 264 262 260
291 292 292 292 293 293 294 295 296 296 297 298 298 299 299 299 298 296 293 291 290 291 291 291 291 291 291 291 292 292 291 291 290 289 286 283 280 276 272 268 264 261 259
293 293 293 294 294 295 295 296 296 297 297 298 299 299 300 300 297 293 289 287 287 288 290 291 292 293 294 294 294 294 294 294 294 293 291 288 284 281 277 272 266 261 257
294 294 294 295 295 295 296 296 296 297 298 298 299 299 300 299 295 290 286 285 286 287 289 291 293 295 296 297 297 297 296 296 296 295 294 291 288 285 281 276 270 264 258
295 295 295 295 296 296 296 296 297 297 297 298 299 300 301 299 293 288 287 289 291 293 295 296 298 299 299 299 298 297 297 297 297 297 296 294 291 288 285 280 275 268 260
296 296 296 296 296 296 295 295 295 296 298 299 300 300 301 298 292 289 290 293 295 297 299 300 301 302 302 301 300 298 297 298 299 300 299 298 296 293 289 283 278 272 263
297 297 297 296 296 295 294 294 294 294 296 298 299 299 298 295 291 289 291 295 299 301 303 304 305 306 305 304 301 299 298 300 302 303 302 300 298 296 293 288 282 275 266
298 298 298 297 296 294 293 292 293 295 296 296 297 297 295 291 290 290 293 297 301 304 307 308 309 310 309 307 303 300 300 302 304 305 305 302 298 294 292 290 285 278 269
298 299 299 297 294 292 291 291 292 294 295 296 295 293 290 288 290 294 298 301 304 307 309 311 313 315 314 311 307 303 302 304 306 308 307 304 299 294 290 286 282 278 271
297 299 298 296 292 290 289 288 290 292 293 294 293 289 285 286 289 294 298 302 305 309 312 315 317 318 319 316 312 307 305 307 309 311 311 308 303 297 291 285 280 274 268
297 297 296 293 290 288 287 286 287 289 290 290 289 285 283 286 291 296 300 304 308 312 316 319 321 321 322 321 317 312 309 310 312 314 315 313 309 303 296 289 282 275 268
296 296 293 291 288 286 284 283 283 285 286 285 283 281 282 287 292 298 303 307 312 315 318 321 324 325 326 325 323 319 316 315 315 317 318 317 313 307 301 294 287 280 273
295 293 291 288 285 282 280 279 278 280 280 279 277 276 280 286 293 298 304 309 313 316 318 320 323 325 327 329 329 327 324 321 319 320 322 322 319 313 305 299 292 286 279
294 291 288 285 281 277 274 272 272 272 272 271 270 273 278 285 292 298 303 309 312 315 317 318 320 323 325 327 330 331 330 329 328 327 328 329 327 323 315 307 299 290 282
294 290 286 281 276 271 267 264 263 263 262 263 266 270 277 286 294 300 305 310 313 316 317 317 317 318 321 323 325 328 330 331 331 332 333 335 336 333 327 319 310 300 290
Height
5647 5644 5641 5637 5634 5630 5626 5622 5618 5613 5609 5605 5600 5596 5591 5587 5584 5580 5578 5575 5573 5571 5569 5567 5566 5564 5565 5565 5565 5566 5567 5566 5569 5580 5588 5593 5597 5601 5604 5606 5609 5612 5617
5629 5626 5622 5618 5614 5609 5605 5600 5596 5591 5585 5580 5575 5571 5566 5561 5557 5553 5550 5547 5545 5544 5541 5539 5538 5536 5536 5535 5535 5537 5539 5539 5540 5546 5555 5562 5568 5573 5577 5581 5584 5587 5591
5610 5606 5602 5597 5592 5587 5582 5577 5572 5567 5561 5556 5550 5545 5539 5534 5529 5525 5522 5519 5516 5514 5512 5510 5508 5506 5506 5505 5505 5506 5507 5509 5511 5514 5523 5529 5537 5543 5546 5552 5557 5561 5565
5591 5586 5582 5577 5571 5565 5559 5554 5548 5542 5536 5530 5524 5518 5512 5507 5501 5497 5493 5490 5488 5485 5482 5480 5477 5475 5474 5473 5473 5474 5475 5477 5479 5482 5489 5496 5503 5511 5514 5521 5525 5531 5537
5571 5567 5561 5555 5549 5543 5536 5530 5523 5517 5511 5505 5499 5494 5488 5483 5477 5471 5468 5465 5461 5459 5456 5451 5448 5445 5443 5441 5441 5442 5442 5443 5446 5448 5454 5462 5471 5475 5480 5485 5490 5499 5506
5552 5546 5540 5533 5526 5519 5513 5506 5500 5494 5488 5483 5478 5473 5469 5463 5456 5450 5444 5441 5438 5434 5430 5426 5422 5418 5415 5413 5411 5410 5410 5411 5412 5414 5419 5427 5437 5440 5442 5446 5453 5462 5477
5531 5524 5517 5510 5503 5497 5490 5484 5479 5474 5469 5464 5460 5455 5450 5444 5437 5431 5424 5418 5415 5410 5405 5401 5398 5393 5389 5386 5385 5384 5384 5382 5381 5382 5386 5393 5398 5405 5407 5414 5417 5421 5438
5509 5502 5494 5487 5481 5476 5470 5465 5460 5456 5452 5447 5442 5437 5432 5426 5418 5411 5404 5398 5394 5389 5383 5378 5374 5370 5365 5362 5362 5362 5360 5359 5356 5356 5359 5363 5364 5367 5369 5372 5377 5385 5398
5488 5481 5474 5467 5462 5457 5452 5448 5443 5439 5435 5429 5424 5418 5413 5407 5398 5391 5383 5378 5374 5369 5364 5359 5353 5349 5345 5341 5341 5341 5340 5337 5334 5333 5334 5335 5336 5338 5338 5339 5344 5348 5359
5468 5461 5455 5450 5445 5441 5436 5431 5426 5422 5417 5412 5407 5400 5394 5388 5379 5371 5363 5358 5354 5351 5347 5342 5337 5332 5329 5325 5323 5323 5322 5319 5317 5316 5315 5314 5313 5314 5312 5311 5313 5316 5322
5450 5444 5439 5434 5430 5425 5421 5415 5410 5405 5400 5395 5390 5384 5376 5369 5361 5353 5345 5340 5336 5334 5331 5328 5324 5319 5315 5311 5308 5306 5304 5302 5300 5298 5296 5294 5292 5290 5289 5286 5286 5287 5291
5434 5429 5424 5419 5414 5410 5405 5399 5393 5387 5382 5377 5372 5367 5360 5352 5344 5337 5330 5325 5320 5318 5316 5313 5310 5305 5301 5297 5293 5289 5286 5282 5279 5276 5274 5271 5267 5265 5263 5261 5260 5260 5263
5418 5413 5408 5403 5398 5393 5388 5383 5376 5370 5365 5359 5354 5349 5344 5337 5329 5322 5317 5313 5308 5305 5303 5300 5296 5291 5287 5283 5278 5273 5268 5263 5258 5254 5250 5245 5240 5236 5234 5233 5232 5232 5235
5402 5397 5392 5387 5382 5377 5371 5366 5360 5354 5348 5342 5337 5332 5327 5322 5314 5309 5305 5301 5298 5294 5291 5288 5283 5278 5273 5268 5263 5257 5251 5245 5238 5232 5227 5221 5216 5211 5207 5204 5203 5202 5205
5386 5381 5376 5371 5366 5360 5355 5349 5343 5338 5331 5326 5321 5316 5311 5307 5300 5295 5291 5288 5285 5282 5278 5274 5270 5265 5259 5253 5247 5240 5233 5227 5220 5214 5207 5201 5195 5189 5185 5181 5178 5177 5180
5371 5365 5360 5354 5349 5344 5339 5334 5327 5322 5316 5310 5304 5299 5294 5290 5285 5282 5278 5275 5271 5268 5264 5259 5254 5249 5243 5237 5231 5224 5217 5210 5203 5197 5190 5184 5178 5173 5168 5164 5160 5159 5161
5355 5349 5344 5338 5333 5327 5323 5318 5314 5308 5301 5295 5290 5285 5280 5275 5272 5269 5266 5262 5258 5255 5250 5245 5239 5233 5227 5220 5214 5208 5202 5195 5189 5183 5176 5170 5164 5159 5154 5151 5147 5146 5146
5339 5333 5327 5322 5316 5311 5307 5302 5299 5295 5291 5283 5276 5271 5268 5263 5260 5258 5256 5252 5247 5242 5237 5231 5225 5218 5211 5204 5198 5193 5188 5182 5176 5170 5164 5158 5152 5148 5144 5140 5137 5135 5135
5323 5317 5311 5305 5300 5295 5291 5287 5283 5280 5276 5271 5266 5260 5256 5253 5250 5248 5245 5241 5237 5231 5226 5219 5212 5205 5197 5191 5185 5180 5176 5171 5165 5159 5153 5148 5142 5138 5135 5131 5129 5127 5127
5306 5300 5294 5288 5283 5278 5275 5271 5268 5264 5261 5257 5253 5249 5246 5244 5241 5238 5235 5231 5226 5221 5215 5209 5201 5194 5187 5180 5174 5169 5165 5160 5155 5149 5143 5138 5133 5129 5126 5124 5122 5120 5120
5288 5282 5276 5271 5266 5262 5258 5255 5253 5250 5247 5244 5240 5238 5236 5234 5232 5229 5226 5222 5217 5212 5206 5199 5192 5185 5178 5171 5165 5160 5156 5151 5146 5140 5134 5129 5124 5120 5118 5116 5114 5113 5113
5270 5264 5258 5253 5249 5245 5242 5240 5238 5236 5234 5232 5229 5227 5226 5224 5223 5220 5217 5213 5208 5203 5197 5191 5184 5178 5171 5164 5158 5153 5148 5143 5138 5132 5126 5121 5116 5113 5110 5108 5107 5107 5106
5251 5244 5239 5234 5231 5228 5226 5225 5224 5223 5222 5220 5219 5218 5217 5215 5213 5211 5208 5204 5199 5194 5189 5183 5177 5171 5164 5158 5152 5146 5141 5136 5131 5126 5120 5115 5110 5106 5103 5101 5100 5100 5100
5230 5224 5219 5215 5212 5211 5210 5210 5210 5210 5210 5210 5209 5209 5208 5207 5205 5203 5200 5196 5192 5187 5182 5176 5171 5165 5159 5153 5147 5141 5135 5130 5125 5120 5115 5109 5105 5100 5097 5095 5094 5093 5093
5208 5202 5197 5194 5193 5193 5194 5195 5197 5198 5199 5199 5200 5200 5199 5199 5197 5195 5192 5189 5184 5179 5175 5170 5165 5159 5154 5148 5143 5137 5131 5126 5121 5115 5110 5105 5100 5096 5093 5091 5089 5088 5087
5186 5180 5177 5175 5174 5176 5178 5181 5184 5187 5189 5190 5191 5191 5191 5190 5189 5187 5184 5181 5177 5172 5167 5163 5158 5153 5149 5143 5138 5133 5128 5123 5118 5113 5107 5103 5098 5094 5090 5087 5085 5084 5083